Flag for Germany Weather past 2 weeks in Celle, Lower Saxony, Germany

Now
43 °F

Quite cool.


Feels Like: 35 °F
Forecast: 40 / 45 °F
Wind: 15 mph from West

Location: Celle Airport

Current Time: Dec 20, 2014 at 1:11:17 AM

Latest Report: Dec 20, 2014 at 12:20 AM


Visibility: N/A

Pressure: 29.92 "Hg

Humidity: 76%

Dew point: 36 °F

Location of CelleLocation

Historic Weather in Celle — Graph

°F

Celle temperature yesterday

Maximum temperature yesterday: 54 °F (at 1:20 AM)
Minimum temperature yesterday: 43 °F (at 6:20 PM)
Average temperature yesterday: 49 °F

Past Weeks' High & Low Weather Summary

 TemperatureHumidityPressure
High54 °F (Dec 18, 3:20 PM)100% (Dec 4, 11:20 PM)30.36 "Hg (Dec 4, 11:20 PM)
Low32 °F (Dec 9, 8:20 PM)70% (Dec 10, 5:20 AM)29.33 "Hg (Dec 12, 1:20 PM)
Average40 °F89%29.89 "Hg
* Reported Dec 4 11:20 PM — Dec 19 11:20 PM, Celle, Weather by CustomWeather, © 2014

Note: Actual official high and low records may vary slightly from our data, if they occured in-between our weather recording intervals... More about our weather records

Advertising

Celle weather history for previous 24 hours

 ConditionsComfort  
Time TempWeatherWind HumidityBarometerVisibility
11:20 PM
Dec 19
43 °FQuite cool.13 mph81%29.89 "HgN/A
10:20 PM43 °FQuite cool.13 mph81%29.89 "Hg4 mi
9:20 PM43 °FQuite cool.14 mph81%29.89 "HgN/A
8:20 PM43 °FQuite cool.12 mph81%29.86 "HgN/A
7:20 PM43 °FQuite cool.12 mph81%29.83 "HgN/A
6:20 PM43 °FQuite cool.10 mph81%29.83 "HgN/A
5:20 PM45 °FQuite cool.10 mph81%29.80 "HgN/A
4:20 PM46 °FCool.8 mph82%29.77 "HgN/A
3:20 PM48 °FCool.9 mph87%29.74 "HgN/A
2:20 PM48 °FCool.8 mph94%29.71 "HgN/A
1:20 PM48 °FCool.8 mph94%29.71 "Hg5 mi
12:20 PM48 °FCool.8 mph100%29.68 "HgN/A
11:20 AM52 °FCool.20 mph94%29.65 "Hg4 mi
10:20 AM52 °FCool.18 mph94%29.68 "Hg6 mi
9:20 AM52 °FCool.18 mph94%29.68 "Hg4 mi
8:20 AM52 °FCool.18 mph94%29.68 "Hg2 mi
7:20 AM52 °FCool.17 mph94%29.68 "Hg4 mi
6:20 AM52 °FCool.18 mph94%29.68 "Hg4 mi
5:20 AM52 °FCool.15 mph100%29.71 "Hg2 mi
4:20 AM52 °FCool.16 mph100%29.74 "Hg1 mi
3:20 AM54 °FCool.16 mph94%29.74 "Hg2 mi
2:20 AM54 °FCool.17 mph94%29.74 "Hg1 mi
1:20 AM54 °FCool.16 mph94%29.74 "Hg2 mi
Weather by CustomWeather, © 2014

See weather overviewHow to use our weather pages